Total_Precipitation_Accumulation
0.33 0.43 0.43 0.40 0.40 0.40 0.43 0.49 0.63 0.74 0.92 1.09 1.11 1.17 1.32 1.19 1.04 1.01 0.92 0.93 0.96 0.91 0.84 0.81 0.84 0.95 1.17 1.41 1.63 1.77 2.02 2.13 2.21 2.26 2.28 2.35 2.36 2.42 2.40 2.30 2.30 2.54 2.55 2.51
0.38 0.46 0.46 0.41 0.40 0.36 0.36 0.34 0.42 0.64 0.93 0.93 0.89 0.96 1.13 1.14 1.22 1.23 1.13 0.95 0.86 0.86 0.89 0.91 0.85 0.88 0.97 1.20 1.48 1.67 1.88 2.02 2.10 2.23 2.38 2.40 2.38 2.42 2.40 2.42 2.46 2.50 2.42 2.39
0.52 0.55 0.64 0.65 0.51 0.49 0.49 0.46 0.54 0.80 0.96 0.81 0.81 0.85 0.93 1.01 1.16 1.14 1.10 1.18 1.15 1.05 1.12 1.05 1.02 1.04 1.06 1.15 1.39 1.62 1.80 1.92 2.05 2.19 2.31 2.32 2.27 2.39 2.49 2.45 2.37 2.25 2.20 2.20
0.54 0.74 1.03 0.78 0.50 0.45 0.48 0.55 0.54 0.64 0.71 0.69 0.74 0.77 0.89 1.04 1.04 1.00 0.91 0.98 1.15 1.22 1.25 1.22 1.15 1.23 1.24 1.29 1.43 1.62 1.83 1.96 2.05 2.20 2.23 2.26 2.27 2.22 2.22 2.24 2.21 2.19 2.07 2.05
0.69 0.83 0.86 0.76 0.61 0.59 0.62 0.71 0.57 0.58 0.65 0.72 0.80 0.90 1.07 0.96 0.91 0.98 0.92 0.99 1.06 1.11 1.19 1.34 1.36 1.38 1.43 1.55 1.69 1.72 1.84 2.01 2.16 2.23 2.23 2.23 2.24 2.18 2.18 2.19 2.14 2.15 2.11 2.12
0.76 1.02 1.13 0.92 0.67 0.68 0.80 1.25 0.85 0.73 0.84 0.93 0.94 1.24 1.33 0.98 1.03 1.14 0.97 0.95 1.05 1.13 1.18 1.33 1.46 1.54 1.57 1.67 1.84 1.84 1.90 2.04 2.12 2.19 2.29 2.22 2.31 2.39 2.36 2.28 2.22 2.23 2.22 2.16
0.81 1.09 1.21 0.85 0.67 0.80 1.52 1.73 1.05 0.93 1.02 1.12 1.16 1.17 1.10 0.96 1.14 1.28 1.09 1.01 0.97 1.08 1.33 1.44 1.52 1.66 1.73 1.69 1.73 1.78 1.93 2.06 2.15 2.23 2.32 2.30 2.36 2.42 2.44 2.38 2.40 2.29 2.12 2.09
1.08 1.44 1.61 0.97 0.89 1.28 1.51 1.19 1.11 1.08 1.06 1.08 1.04 1.00 0.95 0.91 1.03 1.18 1.23 1.27 1.32 1.41 1.52 1.55 1.59 1.75 1.88 1.91 1.85 1.94 2.02 2.03 2.15 2.30 2.14 2.13 2.38 2.46 2.49 2.50 2.45 2.33 2.19 2.08
1.42 1.57 1.43 1.29 1.31 1.34 1.23 1.29 1.23 1.11 1.10 1.08 1.07 1.05 1.07 1.01 0.96 1.08 1.27 1.33 1.38 1.44 1.47 1.55 1.66 1.76 1.97 2.02 1.98 1.99 2.08 2.11 2.16 2.22 2.32 2.37 2.41 2.49 2.46 2.40 2.35 2.30 2.24 2.12
1.71 1.68 1.49 1.51 1.45 1.38 1.34 1.36 1.28 1.18 1.21 1.17 1.20 1.33 1.31 1.25 1.20 1.11 1.14 1.18 1.25 1.39 1.45 1.62 1.83 1.97 2.17 2.19 2.12 2.14 2.23 2.33 2.33 2.27 2.32 2.47 2.60 2.58 2.48 2.32 2.35 2.38 2.26 2.22
2.12 2.05 1.79 1.62 1.43 1.32 1.26 1.21 1.15 1.16 1.22 1.26 1.24 1.36 1.40 1.49 1.50 1.43 1.33 1.33 1.44 1.60 1.73 1.83 1.95 2.01 2.17 2.33 2.40 2.46 2.47 2.49 2.51 2.51 2.54 2.61 2.58 2.53 2.51 2.44 2.37 2.40 2.34 2.30
2.45 2.07 1.89 1.83 1.61 1.51 1.31 1.21 1.18 1.19 1.19 1.25 1.26 1.34 1.33 1.42 1.57 1.58 1.61 1.68 1.67 1.68 1.85 1.94 1.96 2.04 2.19 2.43 2.67 2.87 2.81 2.66 2.69 2.75 2.76 2.70 2.70 2.52 2.37 2.26 2.19 2.07 2.08 2.07
2.13 1.87 1.73 1.62 1.58 1.60 1.46 1.31 1.26 1.27 1.26 1.32 1.44 1.41 1.40 1.47 1.52 1.61 1.65 1.79 1.85 1.77 1.80 1.90 1.93 2.03 2.17 2.29 2.55 2.87 2.97 2.92 2.79 2.73 2.69 2.66 2.74 2.78 2.68 2.46 2.35 2.16 2.01 1.91
1.96 1.99 1.89 1.70 1.59 1.55 1.59 1.51 1.35 1.36 1.31 1.32 1.47 1.58 1.56 1.49 1.51 1.58 1.61 1.66 1.70 1.72 1.74 1.75 1.74 1.79 2.01 2.29 2.53 2.72 2.79 2.78 2.73 2.70 2.64 2.63 2.73 2.81 2.77 2.72 2.63 2.42 2.17 2.02
1.92 2.02 1.96 1.73 1.72 1.63 1.54 1.51 1.53 1.68 1.52 1.40 1.46 1.68 1.69 1.51 1.48 1.57 1.58 1.54 1.57 1.65 1.72 1.70 1.73 1.77 1.90 2.20 2.55 2.70 2.69 2.67 2.61 2.59 2.67 2.78 2.82 2.90 2.84 2.79 2.74 2.61 2.34 2.12
1.97 2.00 1.92 1.79 1.80 1.74 1.60 1.61 1.70 1.77 1.60 1.47 1.48 1.66 1.86 1.74 1.56 1.56 1.56 1.59 1.67 1.68 1.73 1.72 1.76 1.87 1.97 2.18 2.48 2.65 2.73 2.75 2.69 2.55 2.51 2.63 2.77 2.74 2.75 2.73 2.64 2.54 2.44 2.22
2.11 2.27 2.07 1.89 1.86 1.78 1.74 1.74 1.78 1.82 1.78 1.71 1.64 1.67 1.78 1.73 1.73 1.72 1.71 1.74 1.84 1.84 1.83 1.82 1.84 1.91 1.98 2.16 2.36 2.38 2.45 2.40 2.38 2.27 2.25 2.29 2.47 2.54 2.58 2.65 2.52 2.39 2.31 2.25
2.12 2.23 2.10 1.90 1.84 1.87 1.88 1.79 1.75 1.83 1.93 1.87 1.78 1.86 1.98 2.02 2.08 2.06 1.91 1.83 1.88 1.92 1.92 1.91 1.88 1.91 1.98 2.08 2.28 2.28 2.27 2.24 2.13 2.04 2.08 2.17 2.31 2.40 2.49 2.57 2.50 2.42 2.30 2.22
2.10 2.09 1.95 1.84 1.82 1.89 2.02 1.95 1.79 1.76 1.85 1.88 1.89 1.95 2.03 2.15 2.15 2.12 2.05 2.05 2.11 2.20 2.16 2.04 2.03 1.85 1.93 2.08 2.29 2.44 2.41 2.32 2.26 2.22 2.15 2.23 2.22 2.27 2.42 2.42 2.36 2.35 2.27 2.12
2.06 2.03 1.96 1.98 1.91 1.94 2.00 1.95 1.87 1.74 1.70 1.78 1.84 1.88 1.97 2.12 2.19 2.18 2.12 2.08 2.15 2.25 2.25 2.14 1.85 1.78 1.84 2.03 2.26 2.30 2.44 2.44 2.32 2.19 2.11 2.07 2.12 2.24 2.30 2.22 2.10 2.07 2.02 1.91
2.19 2.18 2.22 2.16 2.12 2.10 2.07 1.98 1.84 1.75 1.70 1.75 1.86 1.93 2.01 2.18 2.29 2.27 2.31 2.27 2.15 2.08 1.94 1.90 1.74 1.74 1.75 1.89 2.03 2.08 2.27 2.35 2.36 2.25 2.10 1.99 1.96 1.99 1.95 1.89 1.84 1.79 1.78 1.78
2.29 2.18 2.15 1.96 1.90 1.95 1.91 1.78 1.63 1.57 1.59 1.66 1.78 1.85 1.92 2.03 2.20 2.18 2.09 2.18 2.12 2.05 1.78 1.67 1.70 1.84 1.86 1.81 1.74 1.90 2.07 2.11 2.10 2.04 1.91 1.79 1.77 1.78 1.74 1.67 1.63 1.57 1.52 1.50
2.18 1.97 1.89 1.80 1.71 1.70 1.66 1.58 1.42 1.41 1.47 1.52 1.67 1.85 1.98 1.96 1.96 2.05 2.01 1.83 1.74 1.72 1.62 1.64 1.69 1.72 1.66 1.60 1.67 1.76 1.85 1.89 1.91 1.90 1.85 1.76 1.69 1.70 1.64 1.49 1.44 1.38 1.33 1.29
1.93 1.72 1.65 1.57 1.48 1.44 1.43 1.38 1.27 1.26 1.28 1.36 1.47 1.64 1.88 1.97 1.85 1.66 1.68 1.66 1.52 1.40 1.36 1.46 1.48 1.47 1.46 1.39 1.50 1.61 1.67 1.68 1.70 1.67 1.61 1.58 1.55 1.56 1.47 1.36 1.28 1.24 1.24 1.21
1.84 1.70 1.58 1.47 1.44 1.38 1.28 1.25 1.25 1.26 1.28 1.39 1.46 1.50 1.69 1.87 1.89 1.61 1.39 1.28 1.26 1.16 1.09 1.10 1.09 1.11 1.09 1.11 1.16 1.25 1.36 1.43 1.47 1.48 1.43 1.46 1.48 1.50 1.43 1.34 1.26 1.21 1.18 1.17
1.81 1.72 1.66 1.54 1.46 1.43 1.36 1.32 1.37 1.37 1.43 1.57 1.57 1.46 1.52 1.59 1.59 1.44 1.27 1.13 1.10 1.12 1.00 0.95 0.91 0.86 0.78 0.77 0.82 0.94 1.03 1.13 1.20 1.20 1.21 1.29 1.38 1.41 1.38 1.36 1.31 1.27 1.24 1.21
1.67 1.61 1.58 1.49 1.38 1.37 1.40 1.41 1.46 1.48 1.59 1.80 1.81 1.59 1.50 1.50 1.48 1.43 1.36 1.25 1.17 1.18 1.06 0.96 0.92 0.87 0.80 0.77 0.76 0.83 0.87 0.92 0.99 1.06 1.12 1.15 1.21 1.30 1.32 1.32 1.34 1.28 1.21 1.14